Timestamp Temperature Pressure Humidity
2021-06-19 18:00:53 14.49 1015.34 55.23
2021-06-19 18:30:53 14.64 1015.22 54.93
2021-06-19 19:00:53 14.76 1015.12 54.89
2021-06-19 19:30:53 14.86 1015.01 55.81
2021-06-19 20:00:54 14.95 1014.91 58.52
2021-06-19 20:30:54 15.02 1014.82 59.43
2021-06-19 21:00:54 15.07 1014.75 61.83
2021-06-19 21:30:54 15.08 1014.67 63.18
2021-06-19 22:00:55 15.08 1014.6 64.85
2021-06-19 22:30:55 15.05 1014.53 66.07
2021-06-19 23:00:55 15.01 1014.47 67.07
2021-06-19 23:30:56 14.96 1014.41 67.96
2021-06-20 00:00:56 14.89 1014.36 68.55
2021-06-20 00:30:56 14.83 1014.32 69.11
2021-06-20 01:00:56 14.75 1014.28 69.53
2021-06-20 01:30:57 14.67 1014.23 69.85
2021-06-20 02:00:57 14.59 1014.17 69.75
2021-06-20 02:30:57 14.5 1014.12 69.67
2021-06-20 03:00:58 14.41 1014.05 69.8
2021-06-20 03:30:58 14.31 1013.99 70.27
2021-06-20 04:00:58 14.21 1013.91 70.67
2021-06-20 04:30:58 14.1 1013.85 71.05
2021-06-20 05:00:59 14 1013.77 71.04
2021-06-20 05:30:59 13.9 1013.71 71.28
2021-06-20 06:00:59 13.8 1013.67 71.52
2021-06-20 06:30:59 13.7 1013.65 71.76
2021-06-20 07:01:00 13.61 1013.64 72.15
2021-06-20 07:31:00 13.53 1013.63 71.8
2021-06-20 08:01:00 13.45 1013.61 72.36
2021-06-20 08:31:00 13.38 1013.59 72.55
2021-06-20 09:01:01 13.32 1013.58 72.21
2021-06-20 09:31:01 13.28 1013.57 71.77
2021-06-20 10:01:01 13.25 1013.56 72.13
2021-06-20 10:31:02 13.23 1013.54 71.63
2021-06-20 11:01:02 13.24 1013.51 70.27
2021-06-20 11:31:02 13.28 1013.47 66.56
2021-06-20 12:01:02 13.34 1013.43 65.15
2021-06-20 12:31:03 13.42 1013.41 61.92
2021-06-20 13:01:03 13.52 1013.38 60.5
2021-06-20 13:31:03 13.64 1013.35 59.7
2021-06-20 14:01:04 13.76 1013.32 58.49
2021-06-20 14:31:04 13.85 1013.3 61.46
2021-06-20 15:01:04 13.91 1013.28 63.26
2021-06-20 15:31:04 13.97 1013.27 63.94
2021-06-20 16:01:05 14.01 1013.24 63.54
2021-06-20 16:31:05 14.06 1013.22 64.7
2021-06-20 17:01:05 14.11 1013.2 66
2021-06-20 17:31:06 14.15 1013.17 66.63